Temperature
7 7 7 7 6 6 6 6 6 6 6 6 6 5 5 5 5 4 4 4 3 3 3 2 2 2 1 1 0 -0 -1 -2 -3 -1 -2 -2 -2 -1 -1 -1 -1 -2 -2
6 6 6 6 6 6 6 6 6 5 5 5 5 5 5 4 4 4 3 3 3 2 2 2 1 1 1 0 -0 -1 -1 -2 -2 -2 -2 -3 -2 -2 -2 -2 -3 -3 -3
6 6 5 5 5 5 5 5 5 5 5 5 4 4 4 3 3 3 2 2 2 1 1 1 1 0 0 -0 -1 -1 -1 -2 -2 -3 -3 -3 -3 -3 -4 -3 -3 -3 -4
5 5 5 5 5 5 5 5 4 4 4 4 4 3 3 2 2 2 1 1 1 1 0 0 0 -0 -0 -1 -1 -1 -2 -2 -3 -4 -4 -4 -4 -4 -5 -5 -4 -4 -4
4 4 4 4 4 4 4 4 4 3 3 3 3 2 2 1 1 1 0 0 -0 -0 -0 -1 -1 -1 -1 -1 -2 -2 -2 -3 -3 -4 -4 -5 -5 -5 -5 -5 -5 -5 -5
4 4 4 4 3 3 3 3 3 3 2 2 2 1 1 0 0 -0 -1 -1 -1 -1 -1 -1 -1 -2 -2 -2 -2 -3 -3 -3 -3 -4 -4 -5 -5 -5 -5 -5 -6 -6 -7
3 3 3 3 3 3 2 2 2 1 1 1 1 0 -0 -0 -1 -1 -2 -2 -2 -2 -2 -2 -2 -2 -2 -2 -3 -3 -3 -3 -3 -3 -4 -4 -4 -4 -5 -5 -6 -6 -6
3 3 2 2 2 2 1 1 1 0 -0 -0 -1 -1 -1 -1 -2 -2 -3 -3 -3 -3 -3 -3 -3 -3 -3 -3 -3 -3 -3 -3 -3 -3 -4 -4 -4 -4 -5 -5 -5 -6 -6
2 2 2 1 1 1 0 0 -0 -1 -1 -2 -2 -2 -2 -2 -2 -3 -3 -3 -3 -3 -3 -3 -3 -3 -3 -3 -4 -4 -4 -4 -4 -4 -4 -4 -4 -5 -5 -5 -6 -7 -7
1 1 1 0 -0 -0 -1 -1 -1 -2 -2 -3 -3 -3 -3 -3 -3 -3 -4 -4 -4 -4 -3 -3 -3 -3 -4 -4 -4 -4 -4 -4 -4 -4 -4 -5 -5 -5 -5 -5 -6 -6 -7
1 0 0 -0 -1 -1 -1 -2 -2 -3 -3 -3 -4 -4 -4 -4 -4 -4 -4 -4 -4 -4 -4 -4 -3 -4 -4 -4 -4 -4 -4 -4 -4 -4 -5 -5 -5 -5 -5 -6 -6 -6 -7
0 -0 -0 -1 -1 -2 -2 -2 -3 -4 -4 -5 -5 -5 -5 -5 -5 -4 -4 -4 -4 -4 -4 -4 -4 -4 -4 -4 -4 -4 -4 -4 -4 -5 -5 -5 -5 -5 -6 -6 -6 -6 -6
-0 -0 -1 -1 -2 -2 -3 -3 -4 -4 -5 -6 -6 -6 -5 -5 -5 -4 -4 -4 -4 -4 -4 -4 -4 -4 -4 -4 -4 -4 -5 -5 -5 -5 -5 -5 -5 -5 -6 -6 -6 -7 -7
-1 -1 -2 -2 -2 -3 -4 -4 -5 -6 -6 -6 -6 -6 -6 -5 -5 -5 -4 -4 -4 -4 -4 -4 -4 -4 -4 -4 -5 -5 -5 -5 -5 -5 -5 -5 -6 -6 -6 -6 -6 -7 -7
-2 -2 -2 -3 -3 -4 -4 -5 -6 -6 -7 -6 -6 -6 -6 -5 -5 -5 -5 -4 -4 -4 -4 -4 -4 -4 -4 -5 -5 -5 -5 -6 -6 -6 -6 -6 -6 -6 -6 -6 -7 -7 -7
-3 -3 -3 -4 -4 -5 -6 -6 -6 -7 -6 -6 -6 -6 -6 -6 -5 -5 -5 -5 -5 -4 -4 -4 -5 -5 -5 -5 -5 -5 -6 -6 -6 -6 -6 -6 -6 -6 -6 -7 -7 -7 -7
-3 -4 -4 -5 -5 -6 -7 -7 -7 -7 -6 -6 -6 -6 -6 -6 -6 -5 -5 -5 -5 -5 -5 -5 -5 -5 -5 -5 -6 -6 -6 -6 -6 -6 -6 -6 -7 -7 -7 -7 -7 -8 -8
-4 -4 -5 -5 -6 -7 -7 -7 -7 -7 -7 -7 -6 -6 -6 -6 -6 -5 -5 -5 -5 -5 -5 -5 -5 -6 -6 -6 -6 -6 -6 -6 -6 -6 -7 -7 -7 -7 -7 -7 -8 -8 -8
-4 -5 -5 -6 -7 -7 -7 -7 -7 -7 -7 -7 -7 -6 -6 -6 -6 -5 -5 -6 -6 -6 -6 -6 -6 -6 -6 -6 -6 -6 -6 -6 -7 -7 -7 -7 -7 -7 -8 -8 -8 -8 -9
-5 -5 -6 -7 -7 -7 -7 -7 -7 -7 -7 -7 -7 -7 -6 -6 -6 -6 -6 -6 -6 -6 -6 -6 -6 -6 -6 -6 -6 -6 -6 -7 -7 -7 -7 -7 -7 -8 -8 -8 -8 -9 -9
-5 -6 -6 -7 -7 -7 -7 -7 -7 -7 -7 -7 -7 -7 -7 -6 -6 -6 -6 -6 -6 -6 -6 -6 -6 -6 -6 -6 -7 -7 -7 -7 -7 -7 -7 -8 -8 -8 -8 -9 -9 -9 -10
-6 -7 -7 -7 -7 -7 -7 -7 -7 -7 -7 -7 -7 -7 -7 -7 -7 -7 -7 -7 -7 -7 -7 -7 -7 -7 -7 -7 -7 -7 -7 -7 -7 -7 -8 -8 -8 -8 -9 -9 -9 -9 -10
-6 -7 -7 -7 -8 -8 -8 -8 -8 -8 -8 -8 -7 -7 -7 -7 -7 -7 -7 -7 -7 -7 -7 -7 -7 -7 -7 -7 -7 -7 -7 -7 -7 -8 -8 -8 -8 -9 -9 -9 -9 -10 -10
-7 -7 -8 -8 -8 -8 -8 -8 -8 -8 -8 -8 -8 -8 -7 -8 -7 -7 -7 -7 -7 -7 -7 -7 -7 -7 -7 -7 -7 -7 -7 -7 -8 -8 -8 -8 -9 -9 -9 -9 -10 -10 -10
-7 -8 -8 -8 -8 -8 -8 -8 -8 -8 -8 -8 -8 -8 -8 -8 -8 -8 -7 -7 -7 -7 -7 -7 -7 -7 -7 -7 -7 -7 -7 -8 -8 -8 -8 -9 -9 -9 -10 -10 -10 -10 -10
-8 -8 -8 -8 -9 -9 -9 -9 -9 -9 -8 -8 -8 -8 -8 -8 -8 -8 -8 -8 -8 -8 -7 -7 -7 -7 -7 -7 -7 -7 -8 -8 -8 -9 -9 -9 -9 -10 -10 -10 -10 -11 -11
Wind_Speed
7 6 7 7 7 7 6 8 8 8 9 9 9 9 10 10 10 10 12 13 15 16 15 16 19 16 15 14 14 14 15 15 21 16 8 9 12 12 12 15 20 20 21
6 6 7 7 7 7 8 9 9 9 9 9 10 10 11 11 10 11 13 13 14 16 16 16 18 15 18 15 15 16 16 16 18 23 10 8 12 12 12 11 12 16 17
6 7 8 8 8 9 9 10 10 10 10 10 10 11 12 12 12 12 13 14 14 15 15 16 17 16 18 15 16 16 15 16 16 18 16 8 9 8 10 10 13 11 13
7 7 8 9 9 10 10 10 11 10 11 11 11 12 12 12 12 13 13 13 14 14 14 15 15 16 17 17 16 17 15 15 15 16 16 10 8 6 7 10 11 10 12
7 8 9 10 9 10 10 11 11 11 12 12 12 13 12 11 11 13 12 13 14 14 14 14 15 19 22 19 15 13 14 14 14 15 16 12 11 7 9 9 13 10 11
8 9 10 10 10 11 11 12 12 12 12 12 12 13 14 13 21 26 20 13 13 13 14 13 14 18 22 27 29 27 22 18 17 16 16 16 13 13 11 11 11 10 10
9 10 10 11 11 12 12 12 13 13 12 13 12 13 15 17 26 28 27 18 13 12 12 12 12 12 19 14 20 26 25 29 27 19 19 18 14 13 13 14 13 11 13
10 11 11 11 12 13 13 13 14 12 13 13 14 14 16 18 27 28 28 18 13 12 12 12 13 13 13 14 13 14 15 16 18 15 14 14 13 11 13 15 14 13 9
11 11 11 11 13 14 14 15 14 14 14 13 14 14 16 19 26 28 27 12 11 12 12 12 13 13 20 23 15 14 15 14 19 24 23 20 22 23 18 12 12 11 11
12 12 12 12 13 15 16 16 14 13 15 15 15 14 15 17 24 27 26 11 12 12 10 11 18 18 21 22 14 13 15 13 11 11 14 16 14 16 22 16 13 12 7
12 12 12 12 13 15 15 14 14 15 16 16 16 15 14 17 22 25 25 13 11 12 11 9 10 20 22 22 19 12 16 14 10 10 10 9 8 8 9 9 11 11 10
12 13 13 13 12 13 14 15 14 14 16 15 15 15 12 13 18 20 25 24 21 13 11 10 11 20 21 21 17 15 19 16 7 7 8 8 8 8 8 8 10 11 10
13 13 13 14 12 11 13 15 14 13 13 14 13 14 13 10 13 23 25 26 25 15 11 18 20 21 20 14 16 18 14 7 6 7 8 8 8 8 7 6 7 8 9
14 14 13 13 14 11 10 11 12 13 13 14 14 15 14 13 11 10 11 13 17 15 13 16 20 20 14 13 12 9 5 6 7 7 7 6 6 6 7 7 7 6 6
13 13 13 12 13 13 11 11 13 12 15 17 15 14 16 16 16 24 20 13 11 12 13 8 6 6 6 6 5 5 5 5 6 5 5 5 6 7 7 7 6 6 6
13 12 11 11 12 12 14 15 18 20 26 27 26 24 18 22 28 28 27 26 25 23 15 7 7 7 7 6 6 5 5 6 5 5 5 5 6 6 6 5 5 6 7
12 13 12 11 12 13 13 15 16 18 22 24 25 25 25 27 27 26 25 24 22 19 9 7 7 7 6 6 5 5 5 5 4 5 5 5 5 5 5 6 6 6 7
11 14 14 11 12 13 13 14 14 16 17 13 17 23 25 25 24 24 23 19 11 9 6 7 8 7 5 5 5 5 5 4 4 4 5 5 5 5 5 6 6 7 7
11 10 11 11 12 12 13 13 14 15 15 14 13 15 21 21 22 21 18 9 9 8 7 7 6 6 5 5 4 4 4 4 4 4 4 5 5 5 5 6 6 10 9
10 18 18 13 12 13 13 13 13 13 14 13 13 13 13 14 11 10 9 7 8 8 7 7 6 5 4 4 4 3 3 3 4 4 4 4 4 5 6 6 6 6 7
10 13 19 15 12 13 13 13 13 13 13 13 13 15 21 13 11 10 9 8 7 7 7 6 5 5 4 3 3 3 4 3 4 4 4 4 4 5 5 6 6 7 8
10 11 11 12 12 12 13 12 12 13 13 14 13 14 20 12 9 9 9 8 7 6 6 6 5 4 3 3 3 3 4 4 4 4 4 4 4 5 5 6 6 7 8
10 12 12 11 12 16 15 12 12 12 13 13 12 12 11 10 9 9 8 8 7 6 5 5 4 3 3 2 3 3 4 4 4 4 4 4 5 5 5 7 8 9 9
9 11 12 12 12 12 12 12 12 12 12 12 12 11 10 9 9 10 9 7 6 6 5 4 3 4 4 2 2 2 3 4 4 4 6 6 6 6 6 7 8 10 10
8 10 11 11 12 12 12 13 12 12 12 12 11 11 10 10 9 8 7 6 6 5 5 4 3 3 3 3 3 3 5 6 6 4 4 5 6 7 7 8 9 10 10
8 10 10 10 11 11 12 12 12 12 12 12 11 10 10 9 8 8 6 5 5 4 4 3 3 3 3 3 4 5 6 7 8 8 5 4 6 6 7 8 10 10 11
Wind_Direction
327 325 324 318 315 312 302 294 291 289 289 284 280 276 272 267 261 256 253 251 250 250 245 242 242 238 239 236 233 233 233 234 252 260 214 205 207 220 231 230 229 234 240
318 319 316 312 313 311 303 297 294 290 288 284 282 278 275 271 265 259 261 258 253 252 249 246 246 242 239 238 235 234 234 231 241 258 248 213 217 218 223 227 229 232 232
317 318 315 312 310 306 301 298 296 291 289 286 282 278 276 273 270 265 262 261 257 255 252 248 248 243 244 240 236 237 236 236 236 249 255 226 223 218 223 231 234 234 232
315 313 308 305 302 298 296 295 293 289 288 287 283 279 275 273 271 269 266 264 261 258 254 251 249 244 244 242 240 238 236 236 236 243 252 242 227 205 210 225 235 231 236
313 309 301 297 295 294 294 292 291 288 286 283 284 283 279 276 273 270 265 262 260 260 256 251 249 249 248 247 244 239 233 236 236 241 247 246 233 211 217 217 233 232 232
306 299 297 297 297 295 294 293 293 291 288 285 284 284 284 284 288 290 287 272 262 260 261 256 252 257 259 259 256 249 236 231 232 235 241 241 236 224 220 221 226 229 238
299 297 297 297 296 295 296 296 295 294 290 289 286 284 285 287 293 294 292 288 275 268 263 263 262 258 261 251 257 259 256 248 237 230 236 238 234 222 218 222 221 222 229
298 296 295 296 296 297 297 295 295 293 292 291 290 287 287 290 295 296 296 292 281 273 266 263 262 260 255 255 248 248 250 254 254 248 241 238 231 223 216 220 222 228 233
298 296 296 297 298 300 299 297 297 297 296 292 290 289 289 293 297 298 297 287 281 275 269 263 262 260 264 267 259 251 251 249 255 254 250 245 237 231 221 217 218 223 231
298 297 296 295 296 298 298 298 298 296 296 296 293 290 288 290 294 298 298 289 284 281 274 265 269 270 270 269 260 253 255 251 240 247 252 255 249 240 233 217 211 217 219
295 296 296 294 293 295 296 296 297 298 297 296 295 293 289 289 294 296 297 294 283 283 282 278 269 277 278 274 269 257 257 254 236 233 235 236 235 231 231 225 212 215 219
296 297 297 296 295 300 298 299 298 298 299 299 299 298 293 289 292 294 296 296 295 290 286 282 275 279 278 275 272 266 267 265 241 228 229 226 223 223 221 218 217 219 221
300 299 299 299 296 293 295 299 302 299 298 300 300 299 298 292 290 296 298 298 297 294 284 284 285 286 286 280 275 275 276 265 239 235 230 225 218 214 206 207 212 218 225
301 302 302 303 304 299 293 294 297 300 300 299 299 299 299 298 295 293 290 293 294 293 289 286 288 287 283 279 274 273 266 257 250 241 232 221 206 200 205 204 209 209 221
300 301 302 301 301 304 300 295 297 292 293 298 299 299 302 302 300 303 304 300 296 289 292 280 274 274 264 259 253 251 246 251 253 238 225 215 208 206 210 204 204 201 210
303 304 304 304 303 303 305 304 299 299 301 301 301 301 301 300 304 307 308 307 307 306 304 291 285 276 267 258 253 251 242 239 235 226 219 213 212 211 207 199 199 206 221
292 299 302 301 302 304 305 307 309 308 305 304 303 305 306 307 307 309 310 311 310 311 302 289 284 278 268 256 248 246 245 235 222 219 219 215 210 208 205 207 208 215 228
289 296 300 298 299 300 302 303 304 306 309 309 307 308 309 309 309 311 313 315 308 303 284 282 281 276 266 255 248 246 242 231 223 221 219 213 207 207 211 213 214 219 230
294 296 296 296 297 299 300 301 301 300 301 304 306 309 310 312 310 310 313 304 299 297 293 288 282 274 265 258 252 245 235 230 225 217 217 212 208 209 219 222 223 236 241
293 300 307 304 302 302 302 301 302 302 302 303 305 306 309 308 308 310 310 302 297 295 293 290 285 275 266 258 251 243 231 224 218 217 219 216 213 214 224 227 230 239 244
295 300 305 305 300 300 301 301 302 302 303 303 302 302 307 310 310 308 306 303 299 298 297 292 286 280 267 253 242 232 226 226 221 221 224 223 219 224 229 233 238 244 251
292 295 297 299 300 302 303 302 303 302 302 302 302 304 310 311 306 305 303 301 298 296 294 290 286 279 264 249 235 225 225 229 227 225 229 229 229 234 238 243 248 253 256
291 295 299 300 302 303 306 303 302 301 302 302 304 307 308 308 306 305 303 302 301 299 297 294 290 285 274 249 230 220 226 234 231 222 225 233 237 242 246 251 255 260 262
292 297 302 303 304 303 303 303 303 302 303 303 305 305 305 306 305 303 303 302 302 301 299 295 286 278 276 266 247 236 236 240 230 225 224 233 244 253 256 260 262 263 266
296 300 302 302 303 303 303 303 303 304 304 305 305 306 307 307 305 304 303 305 305 306 308 306 296 285 274 266 261 258 263 262 255 246 235 242 251 256 263 267 270 273 273
299 301 301 301 301 302 303 304 304 304 305 305 305 304 304 305 304 303 303 302 303 305 307 306 297 292 285 278 271 276 281 280 276 274 267 256 260 267 272 276 277 279 279
Height
1495 1492 1489 1486 1483 1479 1476 1473 1469 1465 1461 1457 1453 1449 1445 1442 1438 1433 1429 1426 1422 1418 1416 1413 1410 1410 1408 1406 1406 1405 1404 1403 1396 1387 1393 1395 1398 1400 1402 1403 1404 1405 1406
1491 1488 1485 1481 1478 1475 1471 1467 1463 1459 1454 1450 1445 1441 1436 1432 1428 1424 1419 1415 1411 1407 1404 1402 1399 1398 1395 1395 1394 1392 1391 1390 1388 1380 1381 1384 1385 1388 1390 1392 1393 1393 1394
1487 1483 1480 1477 1473 1469 1465 1460 1456 1451 1446 1441 1436 1431 1426 1422 1418 1413 1408 1404 1400 1396 1393 1390 1388 1387 1383 1382 1381 1379 1379 1379 1377 1373 1369 1373 1375 1376 1378 1379 1381 1382 1382
1482 1479 1475 1471 1467 1462 1458 1453 1448 1443 1437 1432 1427 1421 1416 1411 1407 1402 1397 1392 1388 1384 1382 1379 1377 1375 1372 1371 1369 1367 1367 1367 1366 1364 1361 1362 1364 1364 1367 1367 1368 1369 1370
1477 1474 1470 1465 1461 1456 1450 1445 1439 1434 1428 1422 1416 1411 1406 1401 1396 1391 1386 1381 1376 1373 1370 1368 1366 1364 1361 1360 1357 1355 1356 1355 1354 1353 1351 1351 1352 1353 1353 1355 1356 1358 1359
1472 1468 1463 1458 1453 1448 1442 1436 1430 1424 1418 1412 1406 1400 1394 1390 1385 1381 1376 1370 1366 1362 1359 1356 1355 1353 1351 1349 1347 1346 1345 1343 1341 1341 1340 1339 1339 1342 1344 1345 1347 1348 1348
1466 1462 1457 1451 1445 1439 1433 1427 1420 1414 1407 1401 1395 1389 1383 1378 1375 1370 1366 1362 1357 1353 1349 1346 1344 1342 1340 1338 1336 1335 1335 1334 1333 1331 1328 1327 1330 1332 1335 1336 1336 1336 1338
1460 1455 1449 1443 1437 1430 1424 1418 1411 1404 1397 1391 1384 1379 1373 1368 1364 1359 1355 1351 1346 1343 1340 1337 1334 1331 1330 1328 1325 1323 1322 1322 1323 1322 1320 1319 1321 1323 1325 1326 1327 1329 1330
1453 1447 1442 1436 1429 1422 1415 1408 1402 1395 1387 1381 1375 1369 1363 1358 1354 1350 1346 1341 1336 1333 1330 1328 1325 1321 1320 1318 1316 1313 1311 1310 1311 1311 1311 1311 1312 1314 1316 1317 1318 1320 1320
1446 1440 1434 1428 1421 1414 1407 1400 1393 1386 1378 1372 1365 1361 1355 1349 1345 1341 1337 1333 1328 1324 1321 1318 1316 1313 1311 1309 1307 1304 1302 1301 1302 1301 1302 1302 1304 1305 1307 1308 1309 1311 1311
1438 1432 1426 1420 1414 1406 1398 1392 1385 1377 1370 1363 1357 1351 1346 1341 1336 1333 1330 1326 1321 1317 1313 1310 1307 1305 1303 1301 1299 1297 1295 1294 1293 1293 1293 1293 1294 1296 1298 1300 1301 1302 1304
1431 1424 1418 1412 1405 1398 1391 1383 1377 1370 1362 1354 1348 1341 1337 1334 1330 1325 1322 1319 1315 1311 1306 1303 1299 1297 1295 1293 1291 1289 1288 1287 1286 1286 1285 1285 1286 1288 1289 1292 1294 1295 1297
1423 1416 1409 1403 1396 1390 1383 1375 1368 1362 1355 1348 1341 1335 1329 1326 1322 1319 1315 1311 1307 1303 1299 1295 1292 1290 1287 1285 1283 1282 1281 1280 1279 1279 1278 1279 1280 1281 1283 1285 1286 1288 1290
1415 1408 1401 1394 1387 1381 1375 1369 1362 1355 1348 1342 1336 1329 1324 1319 1315 1311 1307 1303 1299 1295 1291 1287 1285 1282 1280 1277 1276 1275 1274 1273 1272 1272 1272 1273 1274 1275 1276 1278 1279 1281 1282
1407 1401 1394 1387 1380 1372 1366 1361 1355 1349 1345 1338 1331 1326 1319 1313 1309 1305 1301 1296 1292 1288 1284 1280 1277 1274 1272 1270 1269 1268 1267 1266 1266 1266 1266 1267 1268 1269 1270 1272 1273 1274 1274
1400 1393 1386 1380 1373 1366 1358 1351 1347 1343 1337 1332 1326 1321 1314 1309 1303 1298 1294 1289 1285 1281 1277 1273 1271 1268 1266 1264 1263 1262 1261 1260 1260 1261 1261 1262 1263 1263 1264 1265 1266 1267 1267
1394 1387 1380 1373 1366 1360 1353 1346 1338 1332 1329 1323 1318 1313 1308 1302 1297 1292 1287 1283 1279 1275 1271 1267 1265 1262 1260 1258 1257 1256 1256 1255 1255 1256 1256 1257 1257 1258 1259 1259 1260 1260 1260
1387 1380 1374 1367 1360 1354 1348 1342 1335 1327 1320 1313 1309 1305 1300 1295 1290 1286 1281 1277 1272 1269 1266 1262 1259 1257 1255 1254 1253 1252 1251 1251 1251 1251 1251 1252 1252 1253 1253 1253 1253 1253 1253
1379 1373 1366 1360 1354 1348 1342 1336 1330 1323 1316 1309 1303 1297 1294 1289 1285 1280 1276 1272 1267 1263 1260 1258 1255 1252 1251 1249 1249 1248 1247 1247 1247 1247 1247 1247 1247 1247 1247 1247 1247 1246 1246
1372 1366 1361 1354 1348 1342 1336 1330 1324 1318 1311 1305 1299 1293 1288 1283 1278 1274 1271 1267 1263 1259 1256 1253 1251 1249 1247 1246 1245 1244 1244 1243 1243 1243 1243 1243 1242 1242 1241 1241 1240 1239 1238
1364 1358 1353 1348 1342 1336 1330 1324 1318 1312 1306 1300 1294 1289 1285 1280 1275 1270 1266 1262 1259 1255 1252 1249 1247 1245 1243 1242 1241 1241 1240 1240 1239 1239 1238 1238 1237 1237 1236 1235 1234 1233 1231
1358 1352 1346 1341 1335 1330 1324 1318 1313 1307 1301 1295 1289 1284 1280 1276 1271 1266 1262 1258 1255 1251 1248 1246 1243 1242 1241 1239 1238 1238 1237 1236 1236 1235 1234 1233 1232 1231 1230 1229 1227 1226 1224
1351 1346 1340 1335 1329 1323 1318 1312 1306 1301 1295 1290 1285 1280 1275 1271 1266 1262 1258 1254 1251 1247 1245 1242 1241 1239 1238 1237 1236 1235 1234 1233 1232 1231 1230 1229 1227 1226 1225 1223 1221 1219 1216
1345 1339 1334 1328 1322 1317 1311 1306 1301 1295 1290 1285 1280 1275 1271 1266 1262 1258 1254 1250 1247 1244 1242 1240 1238 1237 1235 1234 1233 1232 1231 1230 1229 1227 1226 1224 1223 1221 1219 1217 1215 1212 1209
1338 1333 1327 1321 1316 1311 1305 1300 1295 1290 1285 1281 1276 1271 1266 1262 1258 1254 1250 1247 1244 1241 1239 1237 1236 1235 1233 1232 1231 1230 1228 1227 1225 1224 1222 1221 1219 1217 1214 1211 1208 1205 1201
1331 1326 1320 1315 1310 1305 1300 1295 1290 1285 1280 1276 1271 1267 1262 1258 1254 1251 1247 1244 1242 1239 1237 1235 1234 1233 1231 1230 1228 1227 1225 1224 1222 1220 1219 1217 1214 1211 1208 1205 1201 1198 1194